SL-16 DEB, 27689

Orbit data source: Space-Track

SL-16 DEB, 27689 is space debris in SSO originally from a launch on Mon, 10 Dec 2001 UTC launched from the Tyuratam Missile And Space Complex (TTMTR). Debris objects in space refer to the collection of defunct objects orbiting the Earth. Examples of debris include non-operational satellites, rocket bodies, and fragments generated from explosions, collisions, or faulty payload assembly.

Loading next visibility...
SL-16 DEB details
Identifier
27689, 2001-056H
Orbit
SSO
Last TLE update12 hours ago
Origin
Flag of CISKVR (CIS)
ManufacturerYuzhnoe
MissionSpacecraft
Bus & MotorSEP MOTOR COVER, Unknown motor
Mass~1 kg wet, ~1 kg dry
Launch date (UTC)
2001-12-10 (23 years ago)
Launch vehicleUnknown
Launch site
Tyuratam Missile And Space Complex (TTMTR)
Object type
Payload
Rocket body
Debris
Shape & HBRCone, 1 m
Radar Cross Section0.635 m², Small (<0.1 m²)

Expand to show TLE details & history

TLE from 12 hours ago
0 SL-16 DEB
1 27689U 01056H   24361.20496172  .00000104  00000-0  29172-3 0  9990
2 27689  99.8764 324.8397 0208626  93.0120 281.7591 13.25938949114767
Epoch: 2024-12-26T04:55Z
Definitive object data (Epoch: 2024-12-26T04:55:08.692Z)
Latitude12.19306°
Longitude153.72079°
Altitude1,135.215 km
Speed7.3 km/s
True Right ascension21h 30m 46s
True Declination12° 07' 33"
Sunlit
Object was in daylight at TLE epoch
Visualization TLE readout
Latitude-19.24645°
Longitude-27.13481°
Altitude1,213.59 km
Speed7.225 km/s
Apparent Right ascension07h 22m 12s
Apparent Declination-35° 10' 08"
Sunlit
Object is in daylight
Visualization observer readout
Local Sidereal Time16:04:18
Azimuth260.773° W
Elevation-50.987°
Doppler factor1
Orbital elements
Apogee altitude1,316.715 km
Perigee altitude1,002.207 km
Semi-major axis7,537.598 km
Eccentricity0.0208626
Inclination99.8764°
RAAN324.8397°
Arg. of periapsis93.012°
True anomaly279.40675°
Mean anomaly281.7591°
Eccentric anomaly280.5841°
Mean motion3.3166 °/min
BSTAR0.00029172
Orbital period108.54 mins
Loading maneuver chart data...
Loading historical data...
Loading historical data...
Loading historical data...
Loading historical data...
Loading historical data...
Loading historical data...
Loading historical data...

SL-16 DEB Visibility forecast

Observer location: undefined°, undefined

Span
Click to sort rows by Start time (UTC) header in descending order
Start Az.
Max El. time (UTC)
Max El. Az.
Max El.
End time (UTC)
End Az.
11 mins2024-12-26 21:16:05.799Z147.262° SSE2024-12-26 21:22:05.799Z58.031° ENE41.04°2024-12-26 21:27:05.799Z354.197° N
7 mins2024-12-26 23:06:05.799Z231.756° WSW2024-12-26 23:09:05.799Z264.745° W19.608°2024-12-26 23:13:05.799Z307.77° NW
11 mins2024-12-27 10:26:05.799Z24.747° NE2024-12-27 10:31:05.799Z107.198° ESE41.793°2024-12-27 10:37:05.799Z183.095° SSW
8 mins2024-12-27 12:14:05.799Z338.285° N2024-12-27 12:17:05.799Z305.347° NW20.183°2024-12-27 12:22:05.799Z253.503° W
|